PORT of AARHUS

ประเทศ: Denmark ประเทศ: Denmark [DK]
แลตติจูด/ลองกิจูด: 56.154° / 10.2295° แสดงบนแผนที่
เวลาท้องถิ่น:  [UTC +2]
UN/LOCODE: DKAAR
เรือทีอยู่ในท่า: 4
เวลาถึงที่คาดหมาย: 6

เวลาถึง/ออกเดินทางล่าสุด


ชื่อเรือ
เวลาถึง (UTC)
เวลาถึง (LT)
ออกเดินทาง (UTC)
ออกเดินทาง (LT)
Vessel Type: เรือทัก, เรือพนักงานนำร่อง, ฯลฯ  AARHUS PILOT 2014-08-30 08:56:00 2014-08-30 10:56:00
Vessel Type: เรือทัก, เรือพนักงานนำร่อง, ฯลฯ  AARHUS PILOT 2014-08-30 01:02:00 2014-08-30 03:02:00 2014-08-30 08:55:00 2014-08-30 10:55:00
Vessel Type: เรือสินค้า  SAINTY VOGUE 2014-08-30 01:09:00 2014-08-30 03:09:00 2014-08-30 08:47:00 2014-08-30 10:47:00
Vessel Type: เรือความเร็วสูง  KATEXPRESS 1 2014-08-30 07:53:00 2014-08-30 09:53:00 2014-08-30 08:42:00 2014-08-30 10:42:00
Vessel Type: เรือความเร็วสูง  KATEXPRESS 2 2014-08-29 18:39:00 2014-08-29 20:39:00 2014-08-30 07:08:00 2014-08-30 09:08:00
Vessel Type: เรือทัก, เรือพนักงานนำร่อง, ฯลฯ  MHV 804 ANDROMEDA 2014-08-30 06:48:00 2014-08-30 08:48:00
Vessel Type: เรือทัก, เรือพนักงานนำร่อง, ฯลฯ  MHV 804 ANDROMEDA 2014-08-29 23:58:00 2014-08-30 01:58:00 2014-08-30 06:34:00 2014-08-30 08:34:00
Vessel Type: เรือความเร็วสูง  KATEXPRESS 1 2014-08-29 19:26:00 2014-08-29 21:26:00 2014-08-30 05:09:00 2014-08-30 07:09:00
Vessel Type: เรือทัก, เรือพนักงานนำร่อง, ฯลฯ  ASTERIX 2014-08-30 04:22:00 2014-08-30 06:22:00
Vessel Type: เรือทัก, เรือพนักงานนำร่อง, ฯลฯ  BALTIC 2014-08-29 21:35:00 2014-08-29 23:35:00 2014-08-30 03:10:00 2014-08-30 05:10:00

เวลาถึงที่คาดหมาย


ชื่อเรือ
Scheduled Arrival (UTC)
เวลาถึงที่วางไว้ (เวลาท้องถิ่น)
เวลาถึงโดยประมาณ (UTC)
เวลาถึงโดยประมาณ (เวลาท้องถิ่น)
Vessel Type: เรือยอร์ชและเรืออื่นๆ  TYRFING 2014-08-29 14:30:00 2014-08-29 16:30:00
Vessel Type: เรือทัก, เรือพนักงานนำร่อง, ฯลฯ  ASTERIX 2014-08-30 06:00:00 2014-08-30 08:00:00 2014-08-30 04:18:00 2014-08-30 06:18:00
Vessel Type: เรือสินค้า  AMELAND 2014-08-30 16:00:00 2014-08-30 18:00:00 2014-08-30 11:21:00 2014-08-30 13:21:00
Vessel Type: เรือสินค้า  GLOBIA 2014-08-30 19:00:00 2014-08-30 21:00:00 2014-08-30 16:20:00 2014-08-30 18:20:00
Vessel Type: เรือสินค้า  NEMUNA 2014-08-30 21:00:00 2014-08-30 23:00:00 2014-08-30 13:59:00 2014-08-30 15:59:00
Vessel Type: เรือสินค้า  AUSTERA 2014-08-31 12:00:00 2014-08-31 14:00:00 2014-08-31 09:00:00 2014-08-31 11:00:00

Wind Forecast


    
เวลา (UTC)
ความเร็ว
Direction
Temperature
2014-08-30 09:00:00 14 knots 177° 16°C
2014-08-30 12:00:00 14 knots 192° 16°C
2014-08-30 15:00:00 13 knots 191° 16°C
2014-08-30 18:00:00 10 knots 191° 16°C
2014-08-30 21:00:00 9 knots 209° 16°C
2014-08-31 00:00:00 7 knots 269° 15°C
2014-08-31 03:00:00 6 knots 285° 14°C
2014-08-31 06:00:00 5 knots 290° 13°C
2014-08-31 09:00:00 1 knots 307° 13°C
2014-08-31 12:00:00 2 knots 60° 14°C
2014-08-31 15:00:00 3 knots 55° 15°C
2014-08-31 18:00:00 3 knots 36° 15°C
2014-08-31 21:00:00 4 knots 25° 14°C
2014-09-01 00:00:00 5 knots 356° 14°C
2014-09-01 03:00:00 6 knots 36° 15°C
2014-09-01 06:00:00 8 knots 79° 15°C
2014-09-01 09:00:00 10 knots 79° 15°C